Change the Weather History Date:

Monday, June 3, 2013

  Actual Average (KTCM) Record (KTCM)
Temperature  
Mean Temperature 58 °F -  
Max Temperature 71 °F 65 °F 88 °F (2009)
Min Temperature 44 °F 46 °F 35 °F (1976)
Degree Days  
Heating Degree Days 8    
Growing Degree Days 8 (Base 50)    
Moisture  
Dew Point 50 °F    
Average Humidity 78    
Maximum Humidity 100    
Minimum Humidity 43    
Precipitation  
Precipitation 0.00 in - - ()
Sea Level Pressure  
Sea Level Pressure 30.11 in    
Wind  
Wind Speed 0 mph (NNW)    
Max Wind Speed 7 mph    
Max Gust Speed -    
Visibility 10 miles    
Events      
Averages and records for this station are not official NWS values.
T = Trace of Precipitation, MM = Missing Value Source: NWS Daily Summary

Daily Weather History Graph

Daily Weather History Graph

Search for Another Location

Airport or City:

Trip Planner

Search our weather history database for the weather conditions in past years. The results will help you decide how hot, cold, wet, or windy it might be!

Date:

Astronomy

Jun. 03, 2013 Rise Set
Actual Time 5:16 AM PDT 8:58 PM PDT
Civil Twilight 4:37 AM PDT 9:38 PM PDT
Nautical Twilight 3:44 AM PDT 10:30 PM PDT
Astronomical Twilight 2:31 AM PDT 11:45 PM PDT
Moon 2:33 AM PDT (6/3) 4:20 PM PDT (6/3)
Length of Visible Light 17h 00m
Length of Day
15h 42m
Waning Crescent, 21% of the Moon is Illuminated
Jun 3
Waning Crescent
Jun 8
New
Jun 16
First Quarter
Jun 23
Full
Jun 29
Last Quarter

Hourly Weather History & Observations

Time (PDT) Temp. Dew Point Humidity Pressure Visibility Wind Dir Wind Speed Gust Speed Precip Events Conditions
12:15 AM 55.4 °F 48.2 °F 77% 30.10 in 10.0 mi Calm Calm - N/A   Unknown
12:35 AM 53.6 °F 50.0 °F 88% 30.10 in 10.0 mi Calm Calm - N/A   Unknown
12:55 AM 51.8 °F 48.2 °F 88% 30.10 in 10.0 mi Calm Calm - N/A   Unknown
1:15 AM 50.0 °F 48.2 °F 94% 30.10 in 10.0 mi Calm Calm - N/A   Unknown
1:35 AM 50.0 °F 48.2 °F 94% 30.10 in 10.0 mi Calm Calm - N/A   Unknown
2:15 AM 48.2 °F 48.2 °F 100% 30.10 in 10.0 mi Calm Calm - N/A   Unknown
2:35 AM 48.2 °F 48.2 °F 100% 30.11 in 10.0 mi Calm Calm - N/A   Unknown
2:55 AM 46.4 °F 46.4 °F 100% 30.11 in 10.0 mi Calm Calm - N/A   Unknown
3:15 AM 46.4 °F 46.4 °F 100% 30.11 in 10.0 mi Calm Calm - N/A   Unknown
3:35 AM 46.4 °F 46.4 °F 100% 30.11 in 10.0 mi Calm Calm - N/A   Unknown
3:55 AM 46.4 °F 46.4 °F 100% 30.11 in 10.0 mi Calm Calm - N/A   Unknown
4:15 AM 46.4 °F 46.4 °F 100% 30.11 in 10.0 mi Calm Calm - N/A   Unknown
4:35 AM 46.4 °F 46.4 °F 100% 30.11 in 10.0 mi Calm Calm - N/A   Unknown
4:55 AM 46.4 °F 46.4 °F 100% 30.11 in 10.0 mi Calm Calm - N/A   Unknown
5:15 AM 44.6 °F 44.6 °F 100% 30.11 in 10.0 mi Calm Calm - N/A   Unknown
5:35 AM 44.6 °F 44.6 °F 100% 30.11 in 10.0 mi Calm Calm - N/A   Unknown
5:55 AM 44.6 °F 44.6 °F 100% 30.11 in 9.0 mi Calm Calm - N/A   Unknown
6:15 AM 44.6 °F 44.6 °F 100% 30.12 in 10.0 mi Calm Calm - N/A   Unknown
6:35 AM 44.6 °F 44.6 °F 100% 30.12 in 9.0 mi Calm Calm - N/A   Unknown
6:55 AM 46.4 °F 46.4 °F 100% 30.12 in 10.0 mi Calm Calm - N/A   Unknown
7:15 AM 50.0 °F 50.0 °F 100% 30.13 in 10.0 mi Calm Calm - N/A   Unknown
7:35 AM 51.8 °F 48.2 °F 88% 30.13 in 10.0 mi Calm Calm - N/A   Unknown
7:55 AM 53.6 °F 50.0 °F 88% 30.13 in 10.0 mi WSW 6.9 mph - N/A   Unknown
8:15 AM 53.6 °F 48.2 °F 82% 30.13 in 10.0 mi Calm Calm - N/A   Unknown
8:35 AM 53.6 °F 48.2 °F 82% 30.14 in 10.0 mi Calm Calm - N/A   Unknown
8:55 AM 53.6 °F 48.2 °F 82% 30.14 in 10.0 mi Calm Calm - N/A   Unknown
9:15 AM 53.6 °F 50.0 °F 88% 30.14 in 10.0 mi Calm Calm - N/A   Unknown
9:35 AM 55.4 °F 50.0 °F 82% 30.14 in 10.0 mi Calm Calm - N/A   Unknown
9:55 AM 55.4 °F 50.0 °F 82% 30.14 in 10.0 mi Calm Calm - N/A   Unknown
10:15 AM 55.4 °F 50.0 °F 82% 30.14 in 10.0 mi Calm Calm - N/A   Unknown
10:35 AM 57.2 °F 50.0 °F 77% 30.14 in 10.0 mi Calm Calm - N/A   Unknown
10:55 AM 57.2 °F 50.0 °F 77% 30.14 in 10.0 mi Calm Calm - N/A   Unknown
11:15 AM 57.2 °F 50.0 °F 77% 30.13 in 10.0 mi Calm Calm - N/A   Unknown
11:35 AM 59.0 °F 50.0 °F 72% 30.13 in 10.0 mi Calm Calm - N/A   Unknown
11:55 AM 62.6 °F 51.8 °F 68% 30.13 in 10.0 mi Calm Calm - N/A   Unknown
12:15 PM 62.6 °F 51.8 °F 68% 30.13 in 10.0 mi Calm Calm - N/A   Unknown
12:35 PM 64.4 °F 53.6 °F 68% 30.13 in 10.0 mi NNE 3.5 mph - N/A   Unknown
12:55 PM 64.4 °F 53.6 °F 68% 30.12 in 10.0 mi NNE 3.5 mph - N/A   Unknown
1:15 PM 64.4 °F 51.8 °F 64% 30.12 in 10.0 mi North 3.5 mph - N/A   Unknown
1:35 PM 64.4 °F 53.6 °F 68% 30.11 in 10.0 mi Calm Calm - N/A   Unknown
1:55 PM 66.2 °F 53.6 °F 64% 30.12 in 10.0 mi Calm Calm - N/A   Unknown
2:15 PM 66.2 °F 53.6 °F 64% 30.11 in 10.0 mi Calm Calm - N/A   Unknown
2:35 PM 66.2 °F 53.6 °F 64% 30.11 in 10.0 mi Calm Calm - N/A   Unknown
2:55 PM 66.2 °F 51.8 °F 60% 30.11 in 10.0 mi Calm Calm - N/A   Unknown
3:15 PM 68.0 °F 53.6 °F 60% 30.10 in 10.0 mi Calm Calm - N/A   Unknown
3:35 PM 68.0 °F 53.6 °F 60% 30.10 in 10.0 mi Calm Calm - N/A   Unknown
3:55 PM 69.8 °F 53.6 °F 56% 30.09 in 10.0 mi Calm Calm - N/A   Unknown
4:15 PM 69.8 °F 53.6 °F 56% 30.09 in 10.0 mi NNW 5.8 mph - N/A   Unknown
4:35 PM 71.6 °F 51.8 °F 50% 30.09 in 10.0 mi Calm Calm - N/A   Unknown
4:55 PM 69.8 °F 50.0 °F 49% 30.08 in 10.0 mi Calm Calm - N/A   Unknown
5:15 PM 69.8 °F 50.0 °F 49% 30.08 in 10.0 mi Calm Calm - N/A   Unknown
5:35 PM 69.8 °F 50.0 °F 49% 30.08 in 10.0 mi North 4.6 mph - N/A   Unknown
5:55 PM 71.6 °F 50.0 °F 46% 30.08 in 10.0 mi Calm Calm - N/A   Unknown
6:15 PM 71.6 °F 48.2 °F 43% 30.08 in 10.0 mi Calm Calm - N/A   Unknown
6:35 PM 69.8 °F 48.2 °F 46% 30.08 in 10.0 mi Calm Calm - N/A   Unknown
6:55 PM 69.8 °F 48.2 °F 46% 30.08 in 10.0 mi Calm Calm - N/A   Unknown
7:15 PM 68.0 °F 46.4 °F 46% 30.08 in 10.0 mi Calm Calm - N/A   Unknown
7:35 PM 68.0 °F 48.2 °F 49% 30.08 in 10.0 mi NNW 3.5 mph - N/A   Unknown
7:55 PM 68.0 °F 48.2 °F 49% 30.08 in 10.0 mi Calm Calm - N/A   Unknown
8:15 PM 66.2 °F 50.0 °F 56% 30.08 in 10.0 mi Calm Calm - N/A   Unknown
8:35 PM 64.4 °F 50.0 °F 59% 30.09 in 10.0 mi Calm Calm - N/A   Unknown
9:15 PM 59.0 °F 51.8 °F 77% 30.09 in 10.0 mi Calm Calm - N/A   Unknown
9:35 PM 55.4 °F 51.8 °F 88% 30.10 in 10.0 mi Calm Calm - N/A   Unknown
9:55 PM 57.2 °F 51.8 °F 82% 30.10 in 10.0 mi Calm Calm - N/A   Unknown
10:15 PM 57.2 °F 51.8 °F 82% 30.11 in 10.0 mi Calm Calm - N/A   Unknown
10:35 PM 55.4 °F 53.6 °F 94% 30.11 in 10.0 mi Calm Calm - N/A   Unknown
10:55 PM 55.4 °F 53.6 °F 94% 30.11 in 10.0 mi Calm Calm - N/A   Unknown
11:15 PM 53.6 °F 53.6 °F 100% 30.11 in 10.0 mi Calm Calm - N/A   Unknown
11:35 PM 51.8 °F 51.8 °F 100% 30.11 in 10.0 mi Calm Calm - N/A   Unknown
11:55 PM 53.6 °F 53.6 °F 100% 30.11 in 10.0 mi Calm Calm - N/A   Unknown